Theta_e
303 303 303 303 303 304 305 305 306 307 307 308 309 310 311 310 308 310 309 315 306 300 302 303 303 300 300 299 295 296 296 296 297 292 292 290 289 289 287 289 285 285 285 285 286 283 279 290 291 283 286 289 289 289
303 304 304 304 304 304 305 305 306 306 307 308 309 310 310 309 308 310 306 311 312 304 302 308 307 306 303 303 301 300 297 294 296 295 293 294 289 290 289 284 291 286 287 284 286 285 291 291 289 292 294 291 290 290
303 303 304 304 304 304 304 305 305 306 307 308 308 309 309 308 307 310 308 310 310 304 303 303 302 307 309 308 309 300 300 299 298 301 295 295 288 291 288 286 287 290 294 289 288 290 291 292 296 297 297 295 294 294
303 303 303 304 304 304 304 305 305 306 307 308 309 308 308 307 309 311 307 309 309 306 298 300 309 305 309 308 307 306 303 304 303 301 293 291 288 293 291 290 288 292 291 289 288 291 292 295 297 298 297 297 297 296
302 302 303 303 304 304 304 305 305 306 307 308 309 307 307 306 305 310 310 310 309 305 298 300 306 307 309 308 305 306 305 302 300 298 295 291 295 292 293 294 291 294 288 286 286 292 291 292 298 298 297 296 296 294
302 302 303 303 303 303 304 305 305 306 307 308 309 307 306 304 303 310 304 310 311 309 306 297 304 303 306 307 306 304 304 303 303 299 297 296 299 296 291 288 294 297 297 296 294 297 296 299 299 299 298 297 297 296
302 302 302 302 303 303 304 305 306 307 307 308 307 306 306 303 311 306 303 306 306 311 305 298 297 302 303 304 306 306 306 304 302 299 296 295 294 294 289 285 295 297 297 297 299 299 296 297 296 299 298 298 298 297
301 302 302 303 303 303 304 305 306 307 306 307 306 306 305 305 305 307 310 308 308 308 305 297 295 298 303 301 301 305 304 304 301 299 298 293 292 290 286 291 297 298 298 297 298 300 299 300 299 299 299 298 296 295
301 301 302 303 303 304 305 306 306 306 305 306 306 305 311 310 308 308 308 310 313 307 300 299 293 292 302 301 303 304 307 297 303 296 296 298 290 285 289 292 298 298 298 298 299 299 299 299 298 299 299 299 297 296
301 301 302 303 303 304 305 306 306 305 302 304 309 307 305 307 305 310 310 307 305 305 304 297 299 295 299 300 301 301 300 295 291 297 301 291 286 293 295 298 302 302 301 300 297 297 298 298 299 298 298 299 298 297
301 301 302 303 304 305 305 305 305 304 302 311 308 306 311 306 309 307 300 298 300 297 301 300 298 295 302 295 295 303 299 301 291 295 295 291 290 296 302 299 300 304 304 302 302 302 301 300 300 299 299 298 298 298
301 301 302 303 304 305 305 305 305 312 310 306 308 308 310 305 301 295 295 298 295 293 300 297 299 300 302 303 296 301 297 299 288 300 292 286 295 301 301 300 300 304 305 304 304 301 302 302 302 301 300 299 299 299
301 302 302 303 304 304 305 305 304 304 306 313 308 302 301 299 290 289 287 291 291 297 298 299 299 301 302 302 300 300 292 292 301 291 287 291 297 301 302 300 300 303 304 305 304 304 304 303 302 302 300 301 301 300
301 302 303 304 303 304 305 306 305 306 311 305 298 288 295 292 293 292 292 293 299 299 297 299 301 299 303 299 298 292 297 298 288 285 286 294 298 300 302 303 303 303 304 303 303 304 304 302 303 303 303 303 302 301
302 303 303 303 303 304 305 305 305 313 308 300 300 291 294 298 299 299 300 299 301 301 301 300 301 301 300 295 297 295 290 284 288 288 295 298 301 301 300 300 302 305 305 305 305 303 303 304 304 304 304 303 302 302
302 302 303 302 303 305 304 306 313 315 308 302 300 296 299 299 298 300 299 302 303 303 303 301 297 295 293 296 291 288 287 285 291 297 299 301 301 301 300 301 303 306 306 306 306 306 307 305 305 305 305 306 304 301
301 302 300 302 304 304 304 310 312 303 303 299 299 304 303 302 302 301 300 301 304 302 296 297 291 290 298 293 289 293 291 295 298 299 301 302 301 301 301 301 301 304 306 305 306 307 307 307 307 305 304 307 308 306
302 306 304 304 305 308 311 311 306 302 297 303 300 301 305 304 303 304 306 307 305 304 301 295 300 292 289 285 287 294 298 301 303 302 301 302 302 301 300 300 300 301 302 304 305 305 306 305 302 304 305 306 307 307
304 305 303 303 304 308 304 304 307 298 300 304 305 306 306 306 307 307 308 307 306 306 303 301 294 292 295 298 298 298 301 302 299 300 300 302 303 300 301 301 300 301 301 301 301 301 303 305 305 304 304 305 303 305
301 302 303 303 305 306 298 302 308 302 300 302 305 305 306 305 307 307 306 306 305 303 299 298 297 299 299 301 305 304 303 305 303 299 299 299 302 301 301 300 299 301 301 301 300 295 300 303 304 303 303 303 304 305
305 307 306 309 309 307 304 304 302 303 304 303 306 306 305 307 304 303 304 307 302 301 299 301 300 302 306 307 307 307 305 305 301 300 299 299 301 301 301 301 301 300 299 299 298 298 298 300 302 303 304 302 303 303
309 303 310 308 302 302 303 304 303 305 303 303 304 306 302 301 302 303 305 301 301 301 303 303 305 307 306 304 305 307 307 306 306 302 291 295 299 301 300 301 300 299 299 299 299 299 300 301 302 303 304 302 300 303
304 306 308 303 297 297 296 306 299 300 296 298 303 298 300 301 303 306 300 303 304 307 308 309 308 308 307 308 307 307 307 305 304 305 305 303 304 303 302 302 302 300 299 299 300 300 301 295 300 302 303 303 302 301
300 302 297 297 298 294 301 298 301 299 300 298 296 293 296 300 304 301 297 301 304 307 307 305 304 304 305 306 303 304 305 306 304 305 306 304 302 304 303 302 302 302 301 300 300 300 301 302 297 302 302 301 301 300
295 294 296 290 298 294 292 293 294 296 292 294 292 293 297 302 296 295 295 300 304 305 305 305 304 303 301 301 302 303 307 305 302 301 305 305 303 303 302 303 302 302 302 299 298 299 300 301 302 301 301 300 299 300
289 293 293 295 295 293 294 289 290 291 292 291 293 299 302 297 291 289 297 302 304 305 304 302 301 302 301 301 301 302 303 306 305 304 303 302 301 300 300 299 298 298 300 300 299 299 299 301 300 300 299 298 291 298
289 291 297 301 299 298 296 297 297 295 290 291 296 294 295 289 289 295 304 307 307 308 307 305 305 303 302 302 305 304 305 308 305 303 304 304 303 302 299 296 295 297 299 300 301 300 299 299 299 299 298 299 298 298
297 297 292 296 297 299 292 293 291 291 294 299 297 290 289 291 293 302 303 309 310 310 309 308 308 307 306 306 307 306 304 303 301 303 304 304 303 302 299 298 298 286 298 302 301 302 300 298 297 297 296 296 296 297
296 300 298 294 295 296 295 294 294 298 302 299 295 294 296 301 303 303 306 308 309 308 306 304 305 309 308 307 307 306 305 304 301 298 297 298 297 297 298 298 297 298 299 300 284 290 296 296 296 296 296 296 296 297
296 300 296 295 293 293 298 300 300 303 304 303 303 302 302 302 304 308 307 305 304 303 305 306 307 305 303 302 303 304 305 305 304 301 298 297 296 298 299 299 299 300 301 301 302 300 286 294 294 298 295 295 295 294
302 299 295 296 294 299 301 303 303 302 302 301 303 300 299 302 304 307 306 306 305 305 304 303 304 305 304 304 304 303 301 304 303 301 301 301 301 300 300 300 300 301 301 301 301 300 298 297 296 295 294 294 293 292
299 297 296 293 296 301 302 300 301 300 300 299 299 301 301 300 298 304 308 308 305 303 298 301 303 304 307 308 307 306 290 304 303 302 299 302 302 302 302 301 301 301 301 300 300 299 297 296 296 295 294 293 293 293
298 298 297 297 296 294 299 298 297 296 298 298 299 300 300 299 296 305 309 311 309 308 308 308 308 310 307 307 306 305 296 305 296 286 286 286 285 291 298 301 301 301 299 300 300 299 297 295 296 294 294 293 293 292
Wind_Speed
6 8 11 12 13 14 16 17 18 19 19 20 20 20 20 21 17 8 7 11 13 15 15 16 17 16 7 7 5 6 6 3 2 3 2 3 3 5 4 6 4 6 5 4 5 3 5 16 9 8 8 10 12 13
5 8 9 11 12 14 15 16 16 17 17 17 18 18 19 19 16 9 10 6 9 12 11 14 16 15 12 10 6 5 6 5 5 1 4 2 5 4 2 3 8 4 5 4 5 4 5 8 7 8 8 8 8 10
5 7 8 10 12 13 14 15 16 16 16 15 15 16 18 19 15 9 9 6 8 11 11 9 12 13 15 12 5 3 6 3 6 5 5 2 8 2 2 6 4 5 10 3 4 6 9 8 11 10 9 10 10 11
6 7 8 10 11 12 14 14 15 15 15 13 12 14 14 16 13 9 6 5 2 3 6 9 7 11 12 12 15 15 13 9 6 6 5 4 4 4 4 3 4 7 5 7 2 5 10 11 13 12 10 10 12 13
5 6 8 10 11 12 13 14 15 15 14 13 10 8 9 8 10 7 7 7 5 5 6 7 8 9 10 11 12 10 8 7 4 4 4 6 3 2 4 3 7 5 2 2 4 6 2 8 10 11 12 11 11 11
4 6 8 9 11 12 13 14 15 15 15 12 7 6 6 5 4 3 4 6 8 5 2 4 4 9 7 7 10 10 6 6 3 4 4 5 5 3 3 5 7 8 6 5 2 4 3 6 6 7 9 9 11 12
4 6 8 10 11 12 13 14 14 15 14 9 6 7 7 3 2 4 6 5 9 4 1 5 5 5 6 2 3 5 6 4 5 3 4 4 4 3 2 3 8 7 5 3 4 5 7 8 7 8 6 5 9 10
4 6 8 10 11 12 13 14 14 14 10 4 5 6 7 10 10 5 6 4 7 1 2 2 5 3 7 3 2 3 3 4 5 3 2 2 1 1 2 7 7 4 2 4 3 4 6 8 7 9 7 6 8 10
5 7 8 10 11 12 13 13 14 13 6 1 0 3 5 1 3 4 9 10 2 5 3 4 3 3 3 3 1 2 1 3 2 3 3 2 3 4 4 10 5 2 1 1 1 3 6 5 7 9 9 9 9 10
5 7 9 11 12 12 13 13 14 12 3 4 5 4 3 4 6 9 5 1 3 3 3 5 2 2 4 3 1 2 2 2 2 4 2 2 1 4 6 10 9 2 2 3 2 6 5 7 8 8 8 8 8 9
6 8 9 11 12 12 13 14 14 10 6 2 1 3 3 1 4 2 3 4 4 4 4 4 5 3 3 2 2 1 2 2 2 4 2 4 6 12 12 3 8 6 4 3 3 1 3 4 5 6 6 5 6 7
7 8 10 11 12 12 13 13 15 3 4 4 3 1 2 2 3 3 4 2 5 4 3 5 4 3 1 1 3 2 1 1 4 1 3 3 7 13 15 14 3 4 6 5 1 3 4 3 2 2 3 4 5 5
8 9 10 11 11 12 12 10 5 8 6 2 2 2 4 3 7 4 4 4 3 3 5 5 2 2 1 2 3 1 2 4 2 4 2 3 10 11 11 10 11 6 11 10 6 3 5 5 4 4 5 4 4 5
9 10 11 9 10 13 13 7 4 4 4 2 3 5 3 4 5 4 4 2 2 2 3 3 3 1 1 1 3 2 3 1 4 3 1 4 9 11 11 9 1 5 5 2 2 10 8 5 4 4 3 3 3 3
10 10 9 4 13 13 11 3 4 3 3 3 3 3 4 3 2 1 1 2 1 2 3 1 3 4 2 2 2 1 3 4 2 2 1 5 6 7 10 11 11 10 6 6 6 4 1 7 4 3 5 4 6 4
11 9 3 11 13 12 4 4 3 2 2 2 2 4 4 3 3 1 1 1 1 2 2 3 3 1 2 1 2 3 3 2 3 2 4 4 5 6 9 10 10 9 9 8 5 5 2 6 6 3 4 9 9 8
8 2 10 13 14 9 2 3 2 4 3 2 3 2 2 1 1 2 0 3 0 4 1 2 2 4 1 1 3 2 2 4 4 3 3 4 6 7 8 9 9 10 10 9 11 9 8 9 7 6 9 9 6 9
2 5 10 15 10 3 1 2 1 2 3 2 1 4 2 3 3 2 2 1 2 1 1 2 0 1 3 3 2 2 3 2 1 2 3 4 4 6 7 8 8 7 7 7 7 7 6 8 9 8 9 8 7 5
7 9 12 11 7 4 2 3 4 2 3 2 2 1 2 2 1 1 0 2 2 2 1 0 1 2 2 3 3 5 3 1 2 3 3 2 2 5 7 7 6 7 7 8 7 6 6 5 4 6 7 7 6 6
6 8 8 5 5 1 2 3 2 1 1 3 1 2 1 2 1 1 1 1 1 1 1 1 3 4 4 5 2 3 3 2 0 2 3 3 2 3 6 7 6 6 6 6 6 2 7 5 5 7 6 6 5 2
5 6 6 4 2 3 3 2 2 3 1 1 2 1 1 2 2 2 2 1 3 1 2 3 5 5 3 2 0 1 2 1 3 3 3 3 2 3 3 5 5 5 6 6 7 6 4 5 5 6 5 7 6 5
3 6 3 2 2 1 2 2 3 2 3 2 2 2 2 2 1 2 1 3 1 4 3 4 2 1 3 4 3 4 3 1 2 1 3 3 4 2 4 4 6 6 6 6 7 7 7 6 7 8 4 7 5 7
5 2 1 2 1 3 1 1 2 1 2 2 2 3 1 1 2 1 2 1 2 2 3 1 1 3 4 3 3 4 4 3 3 1 1 2 2 2 4 4 5 6 7 6 6 6 6 5 4 7 7 8 7 5
3 2 3 2 1 1 1 1 0 1 1 2 3 3 3 4 3 2 1 1 2 1 2 1 4 4 5 5 4 3 2 3 5 3 2 3 4 1 3 5 5 6 5 6 6 7 6 6 6 5 7 9 10 8
1 2 0 2 1 2 1 1 1 2 2 3 4 1 3 3 3 2 3 3 1 1 1 2 2 3 3 5 3 2 3 4 4 5 2 3 4 4 4 4 5 5 5 6 6 8 7 6 6 7 7 8 10 9
2 1 1 1 2 1 1 2 2 3 3 3 2 3 2 2 2 3 3 3 2 0 2 5 3 2 6 4 7 6 6 5 5 3 4 4 4 6 7 8 7 5 6 6 6 7 8 7 6 8 8 5 4 10
1 3 3 0 1 2 1 0 1 2 2 2 2 3 2 2 3 3 2 0 1 2 4 5 5 3 4 3 5 5 4 2 4 4 3 3 5 5 6 6 7 6 6 6 6 6 7 8 8 8 8 8 7 8
1 2 4 5 2 1 2 1 2 1 0 1 2 2 3 1 1 2 3 1 2 1 1 3 5 4 5 4 2 2 2 4 4 3 3 4 3 3 4 5 4 1 6 5 6 6 7 7 8 8 8 7 6 7
4 3 4 5 4 3 3 2 2 1 1 2 2 1 2 2 3 3 1 1 2 3 4 5 3 2 2 2 1 1 2 2 3 5 6 5 5 5 5 4 4 4 4 2 7 6 7 7 8 8 7 6 6 5
4 3 3 4 4 3 2 3 2 1 2 3 3 3 4 5 4 3 4 4 5 5 3 3 1 4 5 3 3 2 2 1 3 5 5 6 5 5 4 4 5 5 3 4 2 5 5 6 1 3 6 6 6 7
2 4 3 3 3 1 1 1 3 4 4 4 4 5 6 4 4 3 4 4 5 4 4 6 5 4 4 4 3 3 4 4 2 2 3 3 3 4 4 4 4 4 4 4 3 3 5 5 6 6 6 7 7 6
3 4 2 4 2 2 3 3 3 3 3 4 4 4 3 4 4 2 2 3 4 5 3 4 5 5 4 3 3 2 2 3 4 3 3 1 2 2 2 3 4 4 4 3 3 3 3 4 5 6 6 7 8 8
3 3 2 2 2 3 3 3 3 3 3 3 3 3 4 3 3 1 3 1 3 3 2 3 3 1 1 3 3 3 1 3 6 6 7 5 4 3 3 2 2 3 2 2 2 1 1 2 3 4 5 6 6 7
Wind_Direction
49 34 29 21 13 8 5 2 4 12 14 12 11 9 11 19 7 42 69 17 88 93 69 55 45 37 46 28 21 78 209 124 142 97 68 84 81 78 94 50 355 24 324 16 323 334 19 355 347 32 299 295 314 337
51 36 23 15 10 6 1 359 4 9 11 11 10 14 13 20 13 349 79 55 65 74 92 79 67 43 26 7 335 69 74 81 7 115 76 160 132 99 9 76 1 70 41 319 338 32 312 328 310 281 300 315 354 3
54 37 20 14 7 1 357 1 1 5 8 8 11 19 21 24 24 36 80 25 104 109 90 55 24 29 23 30 16 332 88 40 82 1 67 39 85 326 45 51 333 68 31 5 326 15 341 320 348 338 25 33 16 22
53 31 18 12 2 357 360 356 357 2 4 7 15 22 26 30 24 39 55 10 328 51 79 69 46 43 17 39 52 66 97 84 84 65 81 66 84 347 54 59 29 26 0 347 104 21 306 20 353 12 34 22 17 31
50 25 13 6 358 359 356 352 353 357 1 6 17 24 28 17 1 66 68 45 30 317 91 97 102 41 33 46 56 58 66 71 84 73 87 74 79 225 146 162 40 36 356 346 48 292 233 280 7 6 26 20 21 19
45 17 10 1 357 357 352 348 350 355 360 4 24 27 27 11 298 251 142 67 20 343 128 98 101 40 50 47 57 56 48 42 54 62 64 96 61 315 22 78 18 108 123 142 266 338 309 2 10 7 34 12 12 29
37 11 3 2 355 351 350 346 349 357 2 17 61 43 24 350 21 17 32 8 335 293 167 141 114 63 6 350 62 71 68 63 25 76 37 28 52 1 37 49 355 58 60 40 30 358 6 2 12 13 36 37 23 25
26 7 359 351 350 348 344 343 348 354 1 39 75 84 83 87 123 93 51 356 315 332 357 51 97 145 2 23 83 350 64 78 41 43 106 71 101 11 68 344 337 51 121 96 59 17 4 1 19 24 32 42 41 32
18 1 354 350 347 343 340 340 344 349 350 85 293 284 229 296 34 45 334 299 345 354 70 69 12 48 340 46 331 165 329 75 112 44 51 16 2 41 298 299 321 6 345 12 89 55 357 15 18 28 20 35 38 42
9 355 352 347 343 339 337 340 343 342 317 279 247 246 93 34 331 270 192 166 46 46 39 60 136 28 325 25 149 108 59 118 57 45 123 82 40 295 319 332 316 321 172 234 13 10 32 19 23 22 27 31 38 43
357 350 346 343 339 336 342 343 340 328 237 241 14 50 41 311 242 8 64 23 6 82 36 48 39 2 79 15 358 75 164 182 97 59 358 28 7 359 357 353 275 273 271 231 268 289 4 330 338 11 40 52 53 53
348 342 338 336 334 333 344 345 332 319 18 20 24 201 227 333 23 41 39 57 33 56 51 7 10 356 17 348 267 126 64 130 67 103 54 14 349 357 9 359 106 253 313 295 272 333 22 50 125 78 79 89 85 88
339 333 332 332 330 337 342 342 17 97 186 207 226 69 26 47 40 45 25 38 33 12 22 352 356 338 166 224 250 296 56 66 159 49 66 265 6 4 21 46 20 355 19 358 25 35 60 84 110 104 130 139 133 112
331 326 325 324 334 341 342 338 161 189 269 21 48 29 29 39 55 46 55 85 57 353 346 323 293 359 10 265 328 56 76 106 63 74 31 358 12 2 6 16 165 5 123 356 352 5 354 56 98 110 104 147 180 174
323 321 314 328 342 343 346 114 185 249 331 52 39 59 70 81 119 103 343 300 206 311 308 249 260 260 46 99 34 121 103 73 49 143 67 29 354 353 360 0 357 355 357 18 87 100 350 304 342 25 36 20 308 240
322 303 4 342 336 338 323 208 239 267 67 51 63 119 124 184 103 169 280 348 68 320 264 253 276 287 71 353 83 63 87 95 145 79 36 19 3 7 4 2 3 355 1 12 22 34 323 350 351 309 251 242 227 243
306 23 352 334 329 322 234 266 254 46 51 73 98 56 356 80 1 81 163 334 317 259 335 283 289 36 253 183 92 58 107 96 92 82 41 23 357 360 355 2 8 7 12 13 360 5 2 343 352 342 354 355 319 223
22 353 348 338 331 281 146 338 60 64 81 96 110 85 44 18 346 45 13 7 260 277 268 38 318 21 21 115 149 202 121 90 61 34 36 22 356 354 3 359 359 1 353 359 358 343 344 345 347 353 354 357 354 23
329 317 322 327 339 314 4 72 331 79 61 75 70 74 356 43 63 18 121 79 28 360 234 354 55 111 108 116 148 108 113 82 71 100 73 81 10 354 359 0 352 5 355 359 348 345 331 317 349 327 359 16 11 12
285 282 312 321 305 306 110 79 279 43 92 66 195 142 352 18 33 268 165 225 277 251 110 18 109 145 132 107 100 76 60 74 54 156 115 97 57 329 22 354 5 333 332 347 348 339 336 330 0 357 8 353 338 335
286 13 320 293 19 25 37 1 90 16 57 305 79 258 146 216 210 184 116 158 213 70 109 120 127 116 113 113 159 167 171 263 22 355 2 352 29 337 344 8 350 354 349 359 354 358 304 348 341 334 353 328 13 35
12 313 301 14 13 63 78 40 352 60 270 24 248 248 244 229 176 118 29 234 81 112 106 132 121 148 188 159 156 211 67 163 182 196 196 206 265 329 360 4 355 353 352 360 355 340 343 345 355 317 336 338 335 52
283 250 255 354 53 67 112 262 267 21 293 7 306 276 294 309 46 222 256 40 91 101 132 145 279 253 252 221 192 206 216 250 261 59 33 301 325 304 304 342 2 341 340 359 344 342 341 330 293 316 335 326 354 5
188 353 10 33 27 95 209 139 353 281 271 334 327 345 20 357 333 273 359 87 73 170 190 335 297 252 188 202 218 209 201 257 298 268 214 303 306 352 339 344 345 347 355 329 341 341 333 339 298 328 350 338 344 336
313 14 40 315 164 220 159 134 221 263 351 11 316 346 22 313 296 353 36 62 60 258 324 299 226 253 33 31 0 286 171 297 309 317 44 320 320 292 298 348 351 7 341 334 348 342 335 326 341 1 8 15 353 346
82 133 45 70 111 286 42 288 342 352 323 311 8 341 303 299 305 58 23 20 16 54 77 93 4 41 63 318 311 350 356 357 327 307 55 5 357 338 340 336 336 350 19 331 335 342 337 345 357 341 348 9 49 339
169 157 140 44 337 128 205 219 304 270 272 318 13 324 298 307 28 52 27 174 95 145 154 154 215 223 192 288 348 344 335 341 2 35 66 33 21 8 347 340 339 354 341 321 327 344 352 351 351 351 346 341 6 355
257 208 195 157 170 255 300 284 267 258 124 114 263 274 319 20 262 359 11 43 273 247 245 220 219 262 287 282 289 268 122 121 139 190 204 188 129 41 355 338 357 89 302 347 345 332 5 9 4 1 358 355 2 5
208 171 195 186 172 208 233 250 254 188 130 249 288 296 267 275 316 299 314 262 232 257 258 268 227 234 226 182 184 229 181 203 286 323 349 346 4 25 13 355 344 332 328 340 90 21 28 14 10 358 357 354 350 348
174 182 212 190 199 223 173 202 256 97 235 297 319 275 255 259 262 282 266 251 243 248 270 286 248 229 265 268 185 166 178 246 322 345 357 7 15 16 7 2 359 352 351 319 295 148 183 249 188 313 3 352 7 343
151 189 211 208 241 219 254 233 238 247 250 253 248 269 287 309 295 238 257 267 276 268 258 255 244 221 242 252 268 250 214 165 140 114 24 47 36 33 16 4 359 350 353 359 0 355 352 344 2 357 9 5 9 345
188 205 216 214 215 163 227 234 249 254 253 240 245 221 237 234 256 180 147 251 248 246 222 270 281 260 250 229 216 135 326 103 150 156 153 49 57 46 9 357 17 13 16 30 34 32 23 18 28 23 21 26 17 13
176 192 207 250 238 236 180 236 234 257 229 243 238 226 236 268 269 117 138 245 308 340 336 352 317 307 112 190 161 134 165 131 102 119 131 113 86 36 312 325 356 355 356 4 34 46 25 5 22 4 3 359 2 7